This demonstration page uses our WeatherBlox Daily Observations layout. Learn more.

Hourly Observations for February 20, 2021

Temp ( °F °C ) Dew Point ( °F °C ) Humidity (%) Winds ( mph kmh ) Pressure ( in mb ) Visibility ( mi km ) Precip ( " mm )
12:15 am 00:15 Cloudy 30 -1 21 -6 69 69 NNW 12 19 30.22 1023 10 16.0934 0 0
12:35 am 00:35 Cloudy 30 -1 21 -6 69 69 NNW 5 7 30.23 1024 10 16.0934 0 0
12:55 am 00:55 Cloudy 30 -1 19 -7 64 64 NNW 14 22 30.23 1024 10 16.0934 0 0
1:15 am 01:15 Cloudy 30 -1 19 -7 64 64 NW 16 26 30.23 1024 10 16.0934 0 0
1:35 am 01:35 Cloudy 30 -1 19 -7 64 64 WNW 20 31 30.23 1024 10 16.0934 0 0
1:55 am 01:55 Cloudy 30 -1 19 -7 64 64 NW 10 17 30.24 1024 10 16.0934 0 0
2:15 am 02:15 Cloudy 28 -2 19 -7 69 69 NW 15 24 30.24 1024 10 16.0934 0 0
2:35 am 02:35 Cloudy 28 -2 19 -7 69 69 NW 12 19 30.24 1024 10 16.0934 0 0
2:55 am 02:55 Cloudy 28 -2 19 -7 69 69 NW 10 17 30.24 1024 10 16.0934 0 0
3:15 am 03:15 Cloudy 28 -2 21 -6 74 74 NW 6 9 30.24 1024 10 16.0934 0 0
3:35 am 03:35 Cloudy 28 -2 21 -6 74 74 NNW 6 9 30.24 1024 10 16.0934 0 0
3:55 am 03:55 Cloudy 28 -2 21 -6 74 74 NW 6 9 30.24 1024 10 16.0934 0 0
4:15 am 04:15 Cloudy 28 -2 19 -7 69 69 N 7 11 30.25 1024 10 16.0934 0 0
4:35 am 04:35 Cloudy 28 -2 19 -7 69 69 NNW 9 15 30.25 1024 10 16.0934 0 0
4:55 am 04:55 Cloudy 28 -2 18 -8 64 64 NNW 12 19 30.26 1025 10 16.0934 0 0
5:15 am 05:15 Cloudy 27 -3 18 -8 69 69 NW 16 26 30.26 1025 10 16.0934 0 0
5:35 am 05:35 Cloudy 27 -3 16 -9 64 64 NW 17 28 30.26 1025 10 16.0934 0 0
5:55 am 05:55 Cloudy 27 -3 16 -9 64 64 NNW 8 13 30.28 1025 10 16.0934 0 0
6:15 am 06:15 Mostly Cloudy 27 -3 14 -10 59 59 NW 16 26 30.27 1025 10 16.0934 0 0
6:35 am 06:35 Partly Cloudy 25 -4 14 -10 63 63 NW 15 24 30.27 1025 10 16.0934 0 0
6:55 am 06:55 Sunny 25 -4 14 -10 63 63 NW 12 19 30.27 1025 10 16.0934 0 0
7:15 am 07:15 Partly Cloudy 25 -4 12 -11 59 59 NNW 9 15 30.28 1025 10 16.0934 0 0
7:35 am 07:35 Mostly Cloudy 25 -4 12 -11 59 59 NW 9 15 30.29 1026 10 16.0934 0 0
7:55 am 07:55 Mostly Cloudy 25 -4 12 -11 59 59 NW 9 15 30.3 1026 10 16.0934 0 0
8:15 am 08:15 Mostly Cloudy 27 -3 12 -11 54 54 NW 12 19 30.31 1026 10 16.0934 0 0
8:35 am 08:35 Mostly Cloudy 27 -3 12 -11 54 54 NNW 20 31 30.32 1027 10 16.0934 0 0
8:55 am 08:55 Partly Cloudy 27 -3 12 -11 54 54 NW 16 26 30.33 1027 10 16.0934 0 0
9:15 am 09:15 Mostly Cloudy 27 -3 12 -11 54 54 NW 17 28 30.34 1027 10 16.0934 0 0
9:35 am 09:35 Cloudy 27 -3 14 -10 59 59 NW 18 30 30.33 1027 10 16.0934 0 0
9:55 am 09:55 Cloudy 27 -3 14 -10 59 59 NW 24 39 30.32 1027 10 16.0934 0 0
10:15 am 10:15 Partly Cloudy 25 -4 12 -11 59 59 NW 23 37 30.33 1027 10 16.0934 0 0
10:35 am 10:35 Sunny 27 -3 12 -11 54 54 NW 25 41 30.34 1027 10 16.0934 0 0
10:55 am 10:55 Partly Cloudy 27 -3 12 -11 54 54 WNW 23 37 30.34 1027 10 16.0934 0 0
11:15 am 11:15 Partly Cloudy 28 -2 12 -11 51 51 NW 23 37 30.34 1027 10 16.0934 0 0
11:35 am 11:35 Sunny 28 -2 12 -11 51 51 WNW 24 39 30.34 1027 10 16.0934 0 0
11:55 am 11:55 Sunny 28 -2 12 -11 51 51 NW 20 31 30.34 1027 10 16.0934 0 0
12:15 pm 12:15 Sunny 28 -2 12 -11 51 51 NW 30 48 30.32 1027 10 16.0934 0 0
12:35 pm 12:35 Sunny 28 -2 12 -11 51 51 WNW 26 43 30.32 1027 10 16.0934 0 0
12:55 pm 12:55 Sunny 30 -1 12 -11 47 47 WNW 22 35 30.32 1027 10 16.0934 0 0
1:15 pm 13:15 Partly Cloudy 30 -1 12 -11 47 47 NW 23 37 30.31 1027 10 16.0934 0 0
1:35 pm 13:35 Mostly Cloudy 30 -1 12 -11 47 47 NW 15 24 30.31 1027 10 16.0934 0 0
1:55 pm 13:55 Cloudy 28 -2 12 -11 51 51 NW 10 17 30.32 1027 10 16.0934 0 0
2:15 pm 14:15 Cloudy 30 -1 12 -11 47 47 NNW 13 20 30.3 1026 10 16.0934 0 0
2:35 pm 14:35 Cloudy 32 0 14 -10 47 47 NW 18 30 30.3 1026 10 16.0934 0 0
2:55 pm 14:55 Cloudy 30 -1 14 -10 51 51 NNW 22 35 30.3 1026 10 16.0934 0 0
3:15 pm 15:15 Cloudy 30 -1 14 -10 51 51 NNW 17 28 30.3 1026 10 16.0934 0 0
3:35 pm 15:35 Cloudy 30 -1 14 -10 51 51 NNW 21 33 30.31 1027 10 16.0934 0 0
3:55 pm 15:55 Cloudy 30 -1 14 -10 51 51 NW 17 28 30.32 1027 10 16.0934 0 0
4:15 pm 16:15 Cloudy 30 -1 14 -10 51 51 NW 14 22 30.32 1027 10 16.0934 0 0
4:35 pm 16:35 Cloudy 30 -1 12 -11 47 47 NNW 18 30 30.32 1027 10 16.0934 0 0
4:55 pm 16:55 Cloudy 28 -2 12 -11 51 51 NW 18 30 30.34 1027 10 16.0934 0 0
5:15 pm 17:15 Cloudy 30 -1 12 -11 47 47 NW 14 22 30.34 1028 10 16.0934 0 0
5:35 pm 17:35 Cloudy 28 -2 12 -11 51 51 NW 16 26 30.37 1028 10 16.0934 0 0
5:55 pm 17:55 Cloudy 28 -2 12 -11 51 51 NNW 16 26 30.38 1029 10 16.0934 0 0
6:15 pm 18:15 Mostly Cloudy 28 -2 10 -12 47 47 NW 20 31 30.39 1029 10 16.0934 0 0
6:35 pm 18:35 Partly Cloudy 27 -3 10 -12 50 50 NNW 17 28 30.4 1029 10 16.0934 0 0
6:55 pm 18:55 Clear 27 -3 10 -12 50 50 NNW 12 19 30.41 1030 10 16.0934 0 0
7:15 pm 19:15 Clear 27 -3 10 -12 50 50 NNW 13 20 30.43 1030 10 16.0934 0 0
7:35 pm 19:35 Clear 27 -3 10 -12 50 50 NW 10 17 30.44 1031 10 16.0934 0 0
7:55 pm 19:55 Clear 27 -3 12 -11 54 54 NW 13 20 30.44 1031 10 16.0934 0 0
8:15 pm 20:15 Clear 27 -3 12 -11 54 54 NW 14 22 30.44 1031 10 16.0934 0 0
8:35 pm 20:35 Clear 27 -3 12 -11 54 54 NW 13 20 30.45 1031 10 16.0934 0 0
8:55 pm 20:55 Clear 27 -3 12 -11 54 54 NW 16 26 30.45 1031 10 16.0934 0 0
9:15 pm 21:15 Clear 27 -3 12 -11 54 54 NW 13 20 30.46 1031 10 16.0934 0 0
9:35 pm 21:35 Clear 27 -3 12 -11 54 54 NW 15 24 30.47 1032 10 16.0934 0 0
9:55 pm 21:55 Clear 27 -3 12 -11 54 54 WNW 14 22 30.47 1032 10 16.0934 0 0
10:15 pm 22:15 Clear 27 -3 12 -11 54 54 NW 18 30 30.48 1032 10 16.0934 0 0
10:35 pm 22:35 Clear 25 -4 12 -11 59 59 NW 16 26 30.49 1032 10 16.0934 0 0
10:55 pm 22:55 Clear 27 -3 12 -11 54 54 NW 17 28 30.49 1032 10 16.0934 0 0
11:15 pm 23:15 Clear 27 -3 12 -11 54 54 WNW 14 22 30.5 1033 10 16.0934 0 0
11:35 pm 23:35 Clear 25 -4 14 -10 63 63 WNW 15 24 30.51 1033 10 16.0934 0 0
11:55 pm 23:55 Clear 25 -4 12 -11 59 59 WNW 14 22 30.51 1033 10 16.0934 0 0

Powered by AerisWeather